Home > Weather > Springfield > Past weeks

Flag for USA Past Weather in Springfield, Illinois, USA — Yesterday and Last 2 Weeks

Now
88 °F

Scattered clouds.


Feels Like: 98 °F
Forecast: 74 / 87 °F
Wind: 8 mph from Southwest

Location: Capital Airport

Current Time: Aug 24, 2016 at 4:52:23 PM

Latest Report: Aug 24, 2016 at 3:52 PM


Visibility: 10 mi

Pressure: 29.97 "Hg

Humidity: 65%

Dew Point: 75 °F

Location of SpringfieldLocation

Past Weather in Springfield — Graph

°F

Springfield Temperature Yesterday

Maximum temperature yesterday: 81 °F (at 12:52 PM)
Minimum temperature yesterday: 62 °F (at 5:52 AM)
Average temperature yesterday: 72 °F

High & Low Weather Summary for the Past Weeks

 TemperatureHumidityPressure
High94 °F (Aug 11, 3:52 PM)100% (Aug 15, 4:52 AM)30.21 "Hg (Aug 15, 4:52 AM)
Low56 °F (Aug 22, 4:52 AM)44% (Aug 22, 12:52 PM)29.70 "Hg (Aug 20, 10:52 AM)
Average76 °F80%29.98 "Hg
* Reported Aug 9 2:52 PM — Aug 24 2:52 PM, Springfield, Weather by CustomWeather, © 2016

Note: Actual official high and low records may vary slightly from our data, if they occured in-between our weather recording intervals... More about our weather records

Advertising

Springfield Weather History for the Previous 24 Hours

Scroll right to see more
 ConditionsComfort  
Time TempWeatherWind HumidityBarometerVisibility
2:52 PM
Wed, Aug 24
89 °FPassing clouds.9 mph63%29.97 "Hg10 mi
1:52 PM87 °FBroken clouds.13 mph65%29.99 "Hg10 mi
12:52 PM87 °FBroken clouds.15 mph65%30.00 "Hg10 mi
11:52 AM85 °FBroken clouds.14 mph72%30.00 "Hg10 mi
11:02 AM83 °FCloudy.12 mph74%30.01 "Hg10 mi
10:52 AM83 °FPartly sunny.15 mph74%29.99 "Hg10 mi
9:52 AM81 °FScattered clouds.12 mph77%29.95 "Hg10 mi
8:52 AM78 °FSunny.15 mph84%29.95 "Hg10 mi
8:01 AM76 °FThunderstorms. Cloudy.9 mph91%30.02 "Hg10 mi
6:59 AM75 °FPassing clouds.13 mph94%29.99 "Hg7 mi
6:52 AM75 °FOvercast.14 mph94%29.97 "Hg7 mi
5:52 AM75 °FMostly cloudy.13 mph90%29.98 "Hg9 mi
4:52 AM75 °FPartly cloudy.13 mph90%30.01 "Hg8 mi
3:52 AM74 °FPassing clouds.13 mph91%30.02 "Hg10 mi
2:52 AM74 °FPassing clouds.12 mph91%30.04 "Hg10 mi
1:52 AM73 °FPassing clouds.12 mph90%30.04 "Hg10 mi
12:52 AM74 °FPassing clouds.12 mph85%30.06 "Hg10 mi
11:52 PM
Tue, Aug 23
73 °FClear.13 mph84%30.06 "Hg10 mi
10:52 PM72 °FClear.10 mph87%30.07 "Hg10 mi
9:52 PM73 °FClear.9 mph81%30.08 "Hg10 mi
8:52 PM74 °FOvercast.9 mph79%30.08 "Hg10 mi
7:52 PM74 °FSunny.9 mph79%30.09 "Hg10 mi
6:52 PM75 °FOvercast.10 mph76%30.10 "Hg10 mi
5:52 PM76 °FOvercast.12 mph74%30.11 "Hg10 mi
4:52 PM75 °FMore clouds than sun.13 mph76%30.13 "Hg10 mi
Weather by CustomWeather, © 2016

See weather overviewHow to use our weather pages